| time (UTC) | temp F | wind direction | speed MPH | gust MPH | rain 1hr in | rain 24hr in | rain mn in | humidity % | barometer mb |
| 20260509004504 | 82 | 359 | 4.0 | 7.0 | 0.00 | 0.00 | 0.00 | 21 | |
| 20260509003813 | 82 | 358 | 5.0 | 7.0 | 0.00 | 0.00 | 0.00 | 19 | |
| 20260509002703 | 82 | 338 | 10.0 | 14.0 | 0.00 | 0.00 | 0.00 | 20 | |
| 20260509001803 | 83 | 347 | 8.0 | 17.0 | 0.00 | 0.00 | 0.00 | 22 | |
| 20260509001113 | 84 | 356 | 4.0 | 15.0 | 0.00 | 0.00 | 0.00 | 17 | |
| 20260509000003 | 85 | 352 | 4.0 | 9.0 | 0.00 | 0.00 | 0.00 | 18 | |
| 20260508235403 | 84 | 316 | 2.0 | 6.0 | 0.00 | 0.00 | 0.00 | 18 | |
| 20260508234503 | 83 | 290 | 4.0 | 7.0 | 0.00 | 0.00 | 0.00 | 18 | |
| 20260508233603 | 82 | 296 | 2.0 | 6.0 | 0.00 | 0.00 | 0.00 | 22 | |
| 20260508232703 | 82 | 138 | 2.0 | 6.0 | 0.00 | 0.00 | 0.00 | 18 | |
| 20260508231803 | 82 | 100 | 3.0 | 6.0 | 0.00 | 0.00 | 0.00 | 18 | |
| 20260508231113 | 82 | 80 | 2.0 | 6.0 | 0.00 | 0.00 | 0.00 | 18 | |
| 20260508230003 | 82 | 78 | 3.0 | 7.0 | 0.00 | 0.00 | 0.00 | 20 | |
| 20260508225403 | 82 | 89 | 5.0 | 10.0 | 0.00 | 0.00 | 0.00 | 19 | |
| 20260508224503 | 82 | 111 | 3.0 | 6.0 | 0.00 | 0.00 | 0.00 | 20 | |
| 20260508223603 | 81 | 26 | 4.0 | 11.0 | 0.00 | 0.00 | 0.00 | 21 | |
| 20260508222703 | 82 | 24 | 4.0 | 9.0 | 0.00 | 0.00 | 0.00 | 20 | |
| 20260508221805 | 82 | 162 | 4.0 | 9.0 | 0.00 | 0.00 | 0.00 | 21 | |
| 20260508220903 | 81 | 174 | 4.0 | 7.0 | 0.00 | 0.00 | 0.00 | 19 | |
| 20260508220003 | 81 | 160 | 4.0 | 7.0 | 0.00 | 0.00 | 0.00 | 19 | |
| 20260508215613 | 81 | 133 | 3.0 | 6.0 | 0.00 | 0.00 | 0.00 | 20 | |
| 20260508214503 | 81 | 131 | 2.0 | 7.0 | 0.00 | 0.00 | 0.00 | 20 | |
| 20260508213603 | 81 | 81 | 3.0 | 9.0 | 0.00 | 0.00 | 0.00 | 23 | |
| 20260508212703 | 81 | 332 | 2.0 | 4.0 | 0.00 | 0.00 | 0.00 | 24 | |
| 20260508211803 | 81 | 302 | 3.0 | 9.0 | 0.00 | 0.00 | 0.00 | 20 | |
| 20260508210903 | 80 | 63 | 4.0 | 11.0 | 0.00 | 0.00 | 0.00 | 21 | |
| 20260508210003 | 80 | 345 | 3.0 | 10.0 | 0.00 | 0.00 | 0.00 | 23 | |
| 20260508205403 | 80 | 9 | 3.0 | 8.0 | 0.00 | 0.00 | 0.00 | 27 | |
| 20260508204503 | 80 | 345 | 5.0 | 14.0 | 0.00 | 0.00 | 0.00 | 21 | |
| 20260508203814 | 81 | 325 | 6.0 | 12.0 | 0.00 | 0.00 | 0.00 | 21 | |
| 20260508202703 | 80 | 307 | 2.0 | 7.0 | 0.00 | 0.00 | 0.00 | 21 | |
| 20260508201803 | 79 | 352 | 4.0 | 12.0 | 0.00 | 0.00 | 0.00 | 23 | |
| 20260508200903 | 80 | 340 | 3.0 | 12.0 | 0.00 | 0.00 | 0.00 | 24 | |
| 20260508200003 | 80 | 347 | 3.0 | 9.0 | 0.00 | 0.00 | 0.00 | 24 | |
| 20260508195403 | 79 | 14 | 3.0 | 7.0 | 0.00 | 0.00 | 0.00 | 21 | |
| 20260508194503 | 79 | 9 | 3.0 | 7.0 | 0.00 | 0.00 | 0.00 | 22 | |
| 20260508193603 | 79 | 360 | 4.0 | 11.0 | 0.00 | 0.00 | 0.00 | 23 | |
| 20260508192703 | 79 | 1 | 4.0 | 11.0 | 0.00 | 0.00 | 0.00 | 23 | |
| 20260508191803 | 78 | 347 | 4.0 | 13.0 | 0.00 | 0.00 | 0.00 | 23 | |
| 20260508190903 | 79 | 312 | 4.0 | 9.0 | 0.00 | 0.00 | 0.00 | 23 | |
| 20260508190213 | 79 | 313 | 5.0 | 11.0 | 0.00 | 0.00 | 0.00 | 21 | |
| 20260508185403 | 79 | 314 | 3.0 | 6.0 | 0.00 | 0.00 | 0.00 | 24 | |
| 20260508184503 | 78 | 350 | 2.0 | 6.0 | 0.00 | 0.00 | 0.00 | 23 | |
| 20260508183603 | 77 | 360 | 4.0 | 6.0 | 0.00 | 0.00 | 0.00 | 22 | |
| 20260508182703 | 77 | 360 | 8.0 | 13.0 | 0.00 | 0.00 | 0.00 | 23 | |
| 20260508181803 | 77 | 351 | 8.0 | 13.0 | 0.00 | 0.00 | 0.00 | 25 | |
| 20260508180903 | 77 | 6 | 4.0 | 10.0 | 0.00 | 0.00 | 0.00 | 25 | |
| 20260508180212 | 78 | 51 | 2.0 | 9.0 | 0.00 | 0.00 | 0.00 | 28 | |
| 20260508175403 | 77 | 36 | 4.0 | 12.0 | 0.00 | 0.00 | 0.00 | 24 | |
| 20260508174503 | 77 | 17 | 2.0 | 7.0 | 0.00 | 0.00 | 0.00 | 24 | |
| 20260508173603 | 76 | 340 | 2.0 | 5.0 | 0.00 | 0.00 | 0.00 | 26 | |
| 20260508172703 | 75 | 356 | 3.0 | 6.0 | 0.00 | 0.00 | 0.00 | 26 | |
| 20260508171803 | 76 | 360 | 3.0 | 6.0 | 0.00 | 0.00 | 0.00 | 26 | |
| 20260508170903 | 76 | 360 | 1.0 | 6.0 | 0.00 | 0.00 | 0.00 | 26 | |
| 20260508170003 | 75 | 352 | 3.0 | 6.0 | 0.00 | 0.00 | 0.00 | 27 | |
| 20260508165403 | 74 | 352 | 3.0 | 5.0 | 0.00 | 0.00 | 0.00 | 30 | |
| 20260508164504 | 73 | 360 | 3.0 | 5.0 | 0.00 | 0.00 | 0.00 | 28 | |
| 20260508163603 | 73 | 335 | 3.0 | 6.0 | 0.00 | 0.00 | 0.00 | 28 | |
| 20260508162914 | 73 | 291 | 3.0 | 5.0 | 0.00 | 0.00 | 0.00 | 28 | |
| 20260508161803 | 72 | 324 | 1.0 | 3.0 | 0.00 | 0.00 | 0.00 | 26 | |
| 20260508160903 | 72 | 33 | 1.0 | 3.0 | 0.00 | 0.00 | 0.00 | 27 | |
| 20260508160003 | 70 | 40 | 0.0 | 3.0 | 0.00 | 0.00 | 0.00 | 29 | |
| 20260508155403 | 69 | 37 | 0.0 | 2.0 | 0.00 | 0.00 | 0.00 | 31 | |
| 20260508154503 | 68 | 44 | 1.0 | 3.0 | 0.00 | 0.00 | 0.00 | 31 | |
| 20260508153603 | 66 | 40 | 1.0 | 4.0 | 0.00 | 0.00 | 0.00 | 32 | |
| 20260508152703 | 65 | 34 | 1.0 | 4.0 | 0.00 | 0.00 | 0.00 | 36 | |
| 20260508151803 | 64 | 34 | 1.0 | 4.0 | 0.00 | 0.00 | 0.00 | 35 | |
| 20260508150903 | 62 | 32 | 1.0 | 4.0 | 0.00 | 0.00 | 0.00 | 37 | |
| 20260508150004 | 61 | 34 | 2.0 | 4.0 | 0.00 | 0.00 | 0.00 | 37 | |
| 20260508145403 | 60 | 38 | 1.0 | 3.0 | 0.00 | 0.00 | 0.00 | 38 | |
| 20260508144503 | 58 | 31 | 3.0 | 5.0 | 0.00 | 0.00 | 0.00 | 37 | |
| 20260508143603 | 58 | 21 | 2.0 | 5.0 | 0.00 | 0.00 | 0.00 | 39 | |
| 20260508142703 | 57 | 33 | 1.0 | 5.0 | 0.00 | 0.00 | 0.00 | 39 | |
| 20260508142014 | 56 | 34 | 1.0 | 3.0 | 0.00 | 0.00 | 0.00 | 40 | |
| 20260508140903 | 53 | 355 | 0.0 | 3.0 | 0.00 | 0.00 | 0.00 | 42 | |
| 20260508140213 | 52 | 348 | 1.0 | 4.0 | 0.00 | 0.00 | 0.00 | 44 | |
| 20260508135403 | 50 | 260 | 1.0 | 3.0 | 0.00 | 0.00 | 0.00 | 46 | |
| 20260508134503 | 48 | 227 | 0.0 | 2.0 | 0.00 | 0.00 | 0.00 | 49 | |
| 20260508133813 | 48 | 226 | 1.0 | 3.0 | 0.00 | 0.00 | 0.00 | 53 | |
| 20260508132912 | 47 | 194 | 2.0 | 4.0 | 0.00 | 0.00 | 0.00 | 54 | |
| 20260508131803 | 46 | 181 | 0.0 | 1.0 | 0.00 | 0.00 | 0.00 | 50 | |
| 20260508130903 | 46 | 178 | 0.0 | 3.0 | 0.00 | 0.00 | 0.00 | 48 | |
| 20260508130004 | 47 | 177 | 0.0 | 3.0 | 0.00 | 0.00 | 0.00 | 47 | |
| 20260508125403 | 47 | 225 | 1.0 | 4.0 | 0.00 | 0.00 | 0.00 | 47 | |
| 20260508124503 | 46 | 259 | 1.0 | 2.0 | 0.00 | 0.00 | 0.00 | 47 | |
| 20260508123813 | 46 | 257 | 1.0 | 4.0 | 0.00 | 0.00 | 0.00 | 47 | |
| 20260508122703 | 46 | 267 | 1.0 | 3.0 | 0.00 | 0.00 | 0.00 | 48 | |
| 20260508121803 | 44 | 268 | 1.0 | 3.0 | 0.00 | 0.00 | 0.00 | 52 | |
| 20260508120903 | 43 | 262 | 0.0 | 3.0 | 0.00 | 0.00 | 0.00 | 54 | |
| 20260508120003 | 43 | 261 | 0.0 | 1.0 | 0.00 | 0.00 | 0.00 | 53 | |
| 20260508115403 | 43 | 282 | 0.0 | 2.0 | 0.00 | 0.00 | 0.00 | 53 | |
| 20260508114503 | 43 | 269 | 0.0 | 2.0 | 0.00 | 0.00 | 0.00 | 53 | |
| 20260508113603 | 44 | 266 | 1.0 | 2.0 | 0.00 | 0.00 | 0.00 | 52 | |
| 20260508112703 | 44 | 268 | 1.0 | 4.0 | 0.00 | 0.00 | 0.00 | 52 | |
| 20260508111803 | 45 | 272 | 0.0 | 3.0 | 0.00 | 0.00 | 0.00 | 49 | |
| 20260508110903 | 45 | 0 | 0.0 | 0.0 | 0.00 | 0.00 | 0.00 | 48 | |
| 20260508110214 | 46 | 0 | 0.0 | 0.0 | 0.00 | 0.00 | 0.00 | 48 | |
| 20260508105403 | 46 | 0 | 0.0 | 0.0 | 0.00 | 0.00 | 0.00 | 48 | |
| 20260508104503 | 47 | 0 | 0.0 | 0.0 | 0.00 | 0.00 | 0.00 | 46 | |
| 20260508103603 | 49 | 260 | 0.0 | 2.0 | 0.00 | 0.00 | 0.00 | 45 | |
| 20260508102703 | 51 | 261 | 2.0 | 4.0 | 0.00 | 0.00 | 0.00 | 42 | |
| 20260508101803 | 54 | 198 | 1.0 | 5.0 | 0.00 | 0.00 | 0.00 | 41 | |
| 20260508101114 | 56 | 159 | 1.0 | 3.0 | 0.00 | 0.00 | 0.00 | 34 | |
| 20260508100003 | 56 | 140 | 2.0 | 4.0 | 0.00 | 0.00 | 0.00 | 33 | |
| 20260508095403 | 56 | 123 | 2.0 | 5.0 | 0.00 | 0.00 | 0.00 | 33 | |
| 20260508094503 | 56 | 137 | 3.0 | 5.0 | 0.00 | 0.00 | 0.00 | 33 | |
| 20260508093814 | 56 | 132 | 2.0 | 5.0 | 0.00 | 0.00 | 0.00 | 33 | |
| 20260508092703 | 55 | 132 | 2.0 | 4.0 | 0.00 | 0.00 | 0.00 | 34 | |
| 20260508091803 | 56 | 132 | 2.0 | 4.0 | 0.00 | 0.00 | 0.00 | 34 | |
| 20260508090903 | 56 | 130 | 2.0 | 4.0 | 0.00 | 0.00 | 0.00 | 34 | |
| 20260508090003 | 55 | 127 | 2.0 | 4.0 | 0.00 | 0.00 | 0.00 | 35 | |
| 20260508085404 | 56 | 126 | 2.0 | 4.0 | 0.00 | 0.00 | 0.00 | 34 | |
| 20260508084714 | 56 | 124 | 2.0 | 4.0 | 0.00 | 0.00 | 0.00 | 34 | |
| 20260508083603 | 56 | 123 | 2.0 | 3.0 | 0.00 | 0.00 | 0.00 | 35 | |
| 20260508082913 | 56 | 123 | 2.0 | 4.0 | 0.00 | 0.00 | 0.00 | 34 | |
| 20260508081803 | 56 | 171 | 2.0 | 5.0 | 0.00 | 0.00 | 0.00 | 33 | |
| 20260508080903 | 56 | 180 | 2.0 | 3.0 | 0.00 | 0.00 | 0.00 | 34 | |
| 20260508080003 | 56 | 182 | 2.0 | 4.0 | 0.00 | 0.00 | 0.00 | 34 | |
| 20260508075403 | 54 | 182 | 2.0 | 4.0 | 0.00 | 0.00 | 0.00 | 35 | |
| 20260508074713 | 54 | 182 | 1.0 | 3.0 | 0.00 | 0.00 | 0.00 | 36 | |
| 20260508073603 | 54 | 182 | 1.0 | 3.0 | 0.00 | 0.00 | 0.00 | 38 | |
| 20260508072703 | 54 | 182 | 1.0 | 3.0 | 0.00 | 0.00 | 0.00 | 37 | |
| 20260508071803 | 55 | 182 | 1.0 | 3.0 | 0.00 | 0.00 | 0.00 | 37 | |
| 20260508070903 | 57 | 182 | 1.0 | 4.0 | 0.00 | 0.00 | 0.00 | 35 | |
| 20260508070004 | 57 | 182 | 1.0 | 3.0 | 0.00 | 0.00 | 0.00 | 33 | |
| 20260508065403 | 56 | 182 | 1.0 | 3.0 | 0.00 | 0.00 | 0.00 | 34 | |
| 20260508064503 | 56 | 183 | 2.0 | 4.0 | 0.00 | 0.00 | 0.00 | 34 | |
| 20260508063603 | 55 | 202 | 1.0 | 4.0 | 0.00 | 0.00 | 0.00 | 35 | |
| 20260508062703 | 57 | 203 | 1.0 | 4.0 | 0.00 | 0.00 | 0.00 | 33 | |
| 20260508061803 | 57 | 205 | 1.0 | 4.0 | 0.00 | 0.00 | 0.00 | 33 | |
| 20260508060903 | 57 | 212 | 2.0 | 6.0 | 0.00 | 0.00 | 0.00 | 32 | |
| 20260508060006 | 57 | 146 | 1.0 | 4.0 | 0.00 | 0.00 | 0.00 | 32 | |
| 20260508055403 | 57 | 146 | 1.0 | 4.0 | 0.00 | 0.00 | 0.00 | 33 | |
| 20260508054503 | 58 | 146 | 1.0 | 4.0 | 0.00 | 0.00 | 0.00 | 32 | |
| 20260508053603 | 58 | 146 | 2.0 | 4.0 | 0.00 | 0.00 | 0.00 | 33 | |
| 20260508052703 | 59 | 146 | 1.0 | 4.0 | 0.00 | 0.00 | 0.00 | 30 | |
| 20260508051803 | 59 | 146 | 2.0 | 4.0 | 0.00 | 0.00 | 0.00 | 31 | |
| 20260508050903 | 59 | 146 | 2.0 | 3.0 | 0.00 | 0.00 | 0.00 | 31 | |
| 20260508050003 | 61 | 146 | 1.0 | 3.0 | 0.00 | 0.00 | 0.00 | 29 | |
| 20260508045403 | 62 | 146 | 2.0 | 4.0 | 0.00 | 0.00 | 0.00 | 28 | |
| 20260508044503 | 64 | 146 | 2.0 | 4.0 | 0.00 | 0.00 | 0.00 | 26 | |
| 20260508043603 | 64 | 146 | 3.0 | 7.0 | 0.00 | 0.00 | 0.00 | 25 | |
| 20260508042703 | 64 | 135 | 1.0 | 4.0 | 0.00 | 0.00 | 0.00 | 26 | |
| 20260508041803 | 64 | 134 | 1.0 | 4.0 | 0.00 | 0.00 | 0.00 | 26 | |
| 20260508040903 | 65 | 156 | 2.0 | 6.0 | 0.00 | 0.00 | 0.00 | 26 | |
| 20260508040213 | 65 | 195 | 2.0 | 5.0 | 0.00 | 0.00 | 0.00 | 26 | |
| 20260508035612 | 65 | 195 | 3.0 | 6.0 | 0.00 | 0.00 | 0.00 | 26 | |
| 20260508034503 | 65 | 184 | 2.0 | 6.0 | 0.00 | 0.00 | 0.00 | 26 | |
| 20260508033603 | 65 | 192 | 3.0 | 6.0 | 0.00 | 0.00 | 0.00 | 26 | |
| 20260508032912 | 66 | 180 | 3.0 | 10.0 | 0.00 | 0.00 | 0.00 | 25 | |
| 20260508032014 | 66 | 176 | 3.0 | 7.0 | 0.00 | 0.00 | 0.00 | 26 | |
| 20260508031113 | 66 | 230 | 2.0 | 7.0 | 0.00 | 0.00 | 0.00 | 25 | |
| 20260508030004 | 68 | 203 | 3.0 | 9.0 | 0.00 | 0.00 | 0.00 | 25 | |
| 20260508025403 | 68 | 196 | 5.0 | 11.0 | 0.00 | 0.00 | 0.00 | 24 | |
| 20260508024503 | 69 | 185 | 6.0 | 12.0 | 0.00 | 0.00 | 0.00 | 23 | |
| 20260508023603 | 70 | 179 | 4.0 | 10.0 | 0.00 | 0.00 | 0.00 | 22 | |
| 20260508022703 | 70 | 164 | 3.0 | 15.0 | 0.00 | 0.00 | 0.00 | 22 | |
| 20260508021803 | 70 | 182 | 3.0 | 8.0 | 0.00 | 0.00 | 0.00 | 23 | |
| 20260508021113 | 71 | 172 | 3.0 | 9.0 | 0.00 | 0.00 | 0.00 | 22 | |
| 20260508020004 | 71 | 164 | 4.0 | 9.0 | 0.00 | 0.00 | 0.00 | 22 | |
| 20260508015403 | 71 | 165 | 4.0 | 9.0 | 0.00 | 0.00 | 0.00 | 22 | |
| 20260508014713 | 71 | 163 | 3.0 | 9.0 | 0.00 | 0.00 | 0.00 | 22 | |
| 20260508013603 | 70 | 175 | 3.0 | 7.0 | 0.00 | 0.00 | 0.00 | 23 | |
| 20260508012914 | 70 | 178 | 3.0 | 7.0 | 0.00 | 0.00 | 0.00 | 23 | |
| 20260508011803 | 71 | 194 | 4.0 | 9.0 | 0.00 | 0.00 | 0.00 | 23 | |
| 20260508010903 | 71 | 193 | 3.0 | 7.0 | 0.00 | 0.00 | 0.00 | 22 | |
| 20260508010003 | 72 | 198 | 3.0 | 7.0 | 0.00 | 0.00 | 0.00 | 22 | |
| 20260508005613 | 73 | 199 | 3.0 | 5.0 | 0.00 | 0.00 | 0.00 | 23 |